ATLAS 5 CENTAUR DEB, 43982

Orbit data source: Space-Track

ATLAS 5 CENTAUR DEB, 43982 is space debris in HEO originally from a launch on Wed, 17 Sep 2014 UTC launched from the Air Force Eastern Test Range (AFETR). Debris objects in space refer to the collection of defunct objects orbiting the Earth. Examples of debris include non-operational satellites, rocket bodies, and fragments generated from explosions, collisions, or faulty payload assembly.

Loading next visibility...
Identifier
43982, 2014-055AM
Orbit
HEO
Country
Flag of USUS
Related business
Flag of USUnited Launch Alliance/Lockheed Martin (US)
Manufacturer
Unknown
Mission
Spacecraft
Bus & Motor
Unknown
Mass
Unknown
Launch date (UTC)
2014-09-17 (11 years ago)
Launch vehicle
Unknown
Launch site
Air Force Eastern Test Range (AFETR)
Object type
Payload
Rocket body
Debris
Shape & HBR
Unknown shape, 1.1 m
Radar Cross Section
RCS unknown

Expand to show TLE details & history
Last TLE update: 1 day ago

TLE from 1 day ago
0 ATLAS 5 CENTAUR DEB
1 43982U 14055AM  25312.06546294 -.00000043  00000-0  00000-0 0  9998
2 43982  19.4011 211.7999 4716924  47.9623 343.6029  1.75472327 45932
Epoch: 2025-11-08T01:34Z
TLE epoch observation values (Epoch: 2025-11-08T01:34:15.998Z)
Latitude
0.00002°
Longitude
140.81703°
Altitude
10,751.335 km
Speed
5.728 km/s
True Right ascension
14h 07m 32s
True Declination
0° 00' 00"
Sunlit
Object was in daylight at epoch
Visualization orbit readout
Latitude
Unknown
Longitude
Unknown
Altitude
Unknown
Speed
Unknown
Apparent Right ascension
Unknown
Apparent Declination
Unknown
Sunlit
N/A
Visualization observer readout
Local Sidereal Time
21:26:42
Azimuth
Unknown
Elevation
Unknown
Doppler factor
Unknown
Orbital elements
Apogee altitude
36,355.942 km
Perigee altitude
8,962.527 km
Semi-major axis
29,037.371 km
Eccentricity
0.47169
Inclination
19.4011°
RAAN
211.7999°
Arg. of periapsis
47.9623°
True anomaly
312.03689°
Mean anomaly
343.6029°
Eccentric anomaly
330.15208°
Mean motion
0.43864 °/min
Orbital period
820.72 mins
BSTAR
0
Loading maneuver chart data...
Computing Atmospheric mass density...

Documentation

Showing up to 5 results
|